FLOCK 2K-39 (42866 NORAD) Tracking and Keplerian Element Data

This shows tracking and keplerian element data for the satellite.

Feedback or suggestion? Click here.




ElementValue
Catalog42866
NameFLOCK 2K-39
Epoch Orbit23484
Epoch Day261.88153976
Epoch Year2021
RAAN110.2336
Inclination96.8421
Eccentricity0.0009629
Argument of Perigee89.4263
Mean Anonmoly270.8092
Mean Motion15.47721978
Decay Rate0.00017048
L11 42866U 17042AT 21261.88153976 .00017048 00000-0 33016-3 0 9995
L22 42866 96.8421 110.2336 0009629 89.4263 270.8092 15.47721978234842

Live tracking and technical data element details for FLOCK 2K-39 (NORAD 42866). FLOCK 2K-39 can be tracked NOW for your location showing map with azimuth and elevation plus other details from your city location.

Track the satellite on the map from your city or location and see movement details for azimuth, elevation, latitude, longitude, range, height, and movement on the map or in text.







IsCatalogInMostPopularTable: catalog: 42866, numindb: 544
Update: records affected: 1



GetName: 42866 FLOCK 2K-39

Hit Count: updated at: Sun, 26 Sep 2021 01:10:32 GMT